| time (UTC) | temp F | wind direction | speed MPH | gust MPH | rain 1hr in | rain 24hr in | rain mn in | humidity % | barometer mb |
| 20260902224711 | 97 | 178 | 2.0 | 3.0 | 0.00 | 0.00 | 0.00 | 48 | 1019.6 |
| 20260902224207 | 98 | 168 | 1.0 | 5.0 | 0.00 | 0.00 | 0.00 | 48 | 1019.5 |
| 20260902223703 | 98 | 172 | 1.0 | 5.0 | 0.00 | 0.00 | 0.00 | 47 | 1019.5 |
| 20260902223202 | 99 | 127 | 3.0 | 5.0 | 0.00 | 0.00 | 0.00 | 47 | 1019.6 |
| 20260902222701 | 99 | 158 | 1.0 | 3.0 | 0.00 | 0.00 | 0.00 | 45 | 1019.6 |
| 20260902222155 | 98 | 132 | 1.0 | 3.0 | 0.00 | 0.00 | 0.00 | 46 | 1019.8 |
| 20260902221649 | 99 | 206 | 2.0 | 5.0 | 0.00 | 0.00 | 0.00 | 45 | 1019.9 |
| 20260902221149 | 99 | 283 | 2.0 | 3.0 | 0.00 | 0.00 | 0.00 | 44 | 1019.8 |
| 20260902220644 | 99 | 261 | 1.0 | 5.0 | 0.00 | 0.00 | 0.00 | 43 | 1019.7 |
| 20260902220139 | 100 | 278 | 2.0 | 3.0 | 0.00 | 0.00 | 0.00 | 44 | 1019.7 |
| 20260902215635 | 100 | 270 | 3.0 | 3.0 | 0.00 | 0.00 | 0.00 | 44 | 1019.8 |
| 20260902215130 | 99 | 205 | 3.0 | 3.0 | 0.00 | 0.00 | 0.00 | 45 | 1019.7 |
| 20260902214625 | 100 | 156 | 1.0 | 2.0 | 0.00 | 0.00 | 0.00 | 43 | 1019.8 |
| 20260902214124 | 100 | 118 | 0.0 | 5.0 | 0.00 | 0.00 | 0.00 | 42 | 1019.7 |
| 20260902213620 | 100 | 151 | 2.0 | 3.0 | 0.00 | 0.00 | 0.00 | 42 | 1019.9 |
| 20260902213119 | 100 | 141 | 0.0 | 3.0 | 0.00 | 0.00 | 0.00 | 43 | 1019.6 |
| 20260902212615 | 101 | 222 | 2.0 | 2.0 | 0.00 | 0.00 | 0.00 | 43 | 1019.7 |
| 20260902212111 | 100 | 193 | 2.0 | 3.0 | 0.00 | 0.00 | 0.00 | 44 | 1020.0 |
| 20260902211607 | 100 | 206 | 2.0 | 5.0 | 0.00 | 0.00 | 0.00 | 44 | 1019.9 |
| 20260902211102 | 100 | 222 | 1.0 | 2.0 | 0.00 | 0.00 | 0.00 | 44 | 1019.9 |
| 20260902210601 | 101 | 176 | 1.0 | 2.0 | 0.00 | 0.00 | 0.00 | 43 | 1020.1 |
| 20260902210056 | 100 | 159 | 1.0 | 5.0 | 0.00 | 0.00 | 0.00 | 43 | 1020.0 |
| 20260902205555 | 100 | 144 | 4.0 | 6.0 | 0.00 | 0.00 | 0.00 | 44 | 1019.9 |
| 20260902205050 | 100 | 206 | 2.0 | 5.0 | 0.00 | 0.00 | 0.00 | 44 | 1020.0 |
| 20260902204545 | 99 | 139 | 2.0 | 2.0 | 0.00 | 0.00 | 0.00 | 44 | 1020.1 |
| 20260902204040 | 99 | 181 | 2.0 | 7.0 | 0.00 | 0.00 | 0.00 | 45 | 1020.1 |
| 20260902203535 | 100 | 227 | 2.0 | 3.0 | 0.00 | 0.00 | 0.00 | 43 | 1020.2 |
| 20260902203034 | 101 | 141 | 2.0 | 5.0 | 0.00 | 0.00 | 0.00 | 45 | 1020.3 |
| 20260902202530 | 100 | 222 | 3.0 | 5.0 | 0.00 | 0.00 | 0.00 | 45 | 1020.2 |
| 20260902202026 | 100 | 191 | 0.0 | 2.0 | 0.00 | 0.00 | 0.00 | 46 | 1020.1 |
| 20260902201522 | 100 | 255 | 1.0 | 5.0 | 0.00 | 0.00 | 0.00 | 46 | 1020.3 |
| 20260902201021 | 100 | 32 | 3.0 | 5.0 | 0.00 | 0.00 | 0.00 | 44 | 1020.3 |
| 20260902200516 | 100 | 306 | 1.0 | 3.0 | 0.00 | 0.00 | 0.00 | 45 | 1020.4 |
| 20260902200013 | 99 | 142 | 4.0 | 6.0 | 0.00 | 0.00 | 0.00 | 47 | 1020.4 |
| 20260902195508 | 100 | 151 | 3.0 | 5.0 | 0.00 | 0.00 | 0.00 | 45 | 1020.5 |
| 20260902195007 | 100 | 88 | 3.0 | 5.0 | 0.00 | 0.00 | 0.00 | 44 | 1020.5 |
| 20260902194501 | 100 | 351 | 4.0 | 6.0 | 0.00 | 0.00 | 0.00 | 45 | 1020.6 |
| 20260902193956 | 100 | 168 | 3.0 | 5.0 | 0.00 | 0.00 | 0.00 | 46 | 1020.8 |
| 20260902193451 | 100 | 157 | 1.0 | 3.0 | 0.00 | 0.00 | 0.00 | 44 | 1020.8 |
| 20260902192950 | 99 | 127 | 1.0 | 2.0 | 0.00 | 0.00 | 0.00 | 46 | 1020.7 |
| 20260902192444 | 98 | 150 | 4.0 | 6.0 | 0.00 | 0.00 | 0.00 | 49 | 1020.8 |
| 20260902191943 | 98 | 222 | 2.0 | 2.0 | 0.00 | 0.00 | 0.00 | 46 | 1020.7 |
| 20260902191438 | 101 | 133 | 1.0 | 5.0 | 0.00 | 0.00 | 0.00 | 46 | 1021.0 |
| 20260902190933 | 100 | 226 | 1.0 | 5.0 | 0.00 | 0.00 | 0.00 | 45 | 1020.9 |
| 20260902190429 | 98 | 138 | 1.0 | 3.0 | 0.00 | 0.00 | 0.00 | 48 | 1021.0 |
| 20260902185924 | 96 | 133 | 0.0 | 2.0 | 0.00 | 0.00 | 0.00 | 48 | 1021.0 |
| 20260902185421 | 98 | 181 | 2.0 | 5.0 | 0.00 | 0.00 | 0.00 | 48 | 1021.0 |
| 20260902184915 | 98 | 140 | 1.0 | 3.0 | 0.00 | 0.00 | 0.00 | 49 | 1021.1 |
| 20260902184410 | 98 | 195 | 1.0 | 8.0 | 0.00 | 0.00 | 0.00 | 49 | 1021.1 |
| 20260902183906 | 98 | 124 | 0.0 | 2.0 | 0.00 | 0.00 | 0.00 | 47 | 1021.2 |
| 20260902183402 | 99 | 161 | 1.0 | 6.0 | 0.00 | 0.00 | 0.00 | 48 | 1021.2 |
| 20260902182858 | 99 | 262 | 3.0 | 3.0 | 0.00 | 0.00 | 0.00 | 48 | 1021.1 |
| 20260902182354 | 99 | 122 | 2.0 | 3.0 | 0.00 | 0.00 | 0.00 | 47 | 1021.4 |
| 20260902181850 | 99 | 177 | 2.0 | 6.0 | 0.00 | 0.00 | 0.00 | 49 | 1021.2 |
| 20260902181345 | 99 | 158 | 1.0 | 5.0 | 0.00 | 0.00 | 0.00 | 47 | 1021.3 |
| 20260902180839 | 99 | 18 | 1.0 | 5.0 | 0.00 | 0.00 | 0.00 | 48 | 1021.4 |
| 20260902180335 | 99 | 121 | 3.0 | 6.0 | 0.00 | 0.00 | 0.00 | 48 | 1021.5 |
| 20260902175830 | 99 | 105 | 5.0 | 6.0 | 0.00 | 0.00 | 0.00 | 49 | 1021.3 |
| 20260902175325 | 99 | 117 | 2.0 | 3.0 | 0.00 | 0.00 | 0.00 | 49 | 1021.6 |
| 20260902174815 | 98 | 130 | 2.0 | 3.0 | 0.00 | 0.00 | 0.00 | 51 | 1021.4 |
| 20260902174312 | 98 | 103 | 1.0 | 2.0 | 0.00 | 0.00 | 0.00 | 49 | 1021.7 |
| 20260902173807 | 98 | 185 | 0.0 | 3.0 | 0.00 | 0.00 | 0.00 | 50 | 1021.6 |
| 20260902173301 | 97 | 234 | 3.0 | 6.0 | 0.00 | 0.00 | 0.00 | 50 | 1021.6 |
| 20260902172755 | 95 | 224 | 2.0 | 2.0 | 0.00 | 0.00 | 0.00 | 51 | 1021.8 |
| 20260902172255 | 97 | 116 | 0.0 | 5.0 | 0.00 | 0.00 | 0.00 | 51 | 1021.9 |
| 20260902171750 | 96 | 128 | 3.0 | 3.0 | 0.00 | 0.00 | 0.00 | 52 | 1021.8 |
| 20260902171245 | 97 | 134 | 5.0 | 6.0 | 0.00 | 0.00 | 0.00 | 50 | 1021.9 |
| 20260902170742 | 97 | 140 | 1.0 | 6.0 | 0.00 | 0.00 | 0.00 | 51 | 1021.9 |
| 20260902170237 | 97 | 135 | 2.0 | 5.0 | 0.00 | 0.00 | 0.00 | 51 | 1022.1 |
| 20260902165732 | 97 | 154 | 1.0 | 5.0 | 0.00 | 0.00 | 0.00 | 50 | 1021.9 |
| 20260902165226 | 97 | 153 | 5.0 | 7.0 | 0.00 | 0.00 | 0.00 | 50 | 1022.1 |
| 20260902164726 | 96 | 127 | 1.0 | 3.0 | 0.00 | 0.00 | 0.00 | 51 | 1022.0 |
| 20260902164221 | 97 | 135 | 4.0 | 7.0 | 0.00 | 0.00 | 0.00 | 52 | 1022.1 |
| 20260902163715 | 97 | 109 | 0.0 | 5.0 | 0.00 | 0.00 | 0.00 | 50 | 1022.3 |
| 20260902163210 | 96 | 184 | 2.0 | 7.0 | 0.00 | 0.00 | 0.00 | 52 | 1022.3 |
| 20260902162708 | 96 | 153 | 2.0 | 3.0 | 0.00 | 0.00 | 0.00 | 52 | 1022.5 |
| 20260902162203 | 97 | 184 | 2.0 | 3.0 | 0.00 | 0.00 | 0.00 | 52 | 1022.4 |
| 20260902161658 | 96 | 211 | 3.0 | 6.0 | 0.00 | 0.00 | 0.00 | 52 | 1022.6 |
| 20260902161154 | 96 | 159 | 3.0 | 5.0 | 0.00 | 0.00 | 0.00 | 53 | 1022.5 |
| 20260902160650 | 96 | 151 | 3.0 | 5.0 | 0.00 | 0.00 | 0.00 | 54 | 1022.5 |
| 20260902160144 | 97 | 62 | 2.0 | 3.0 | 0.00 | 0.00 | 0.00 | 51 | 1022.5 |
| 20260902155643 | 97 | 115 | 0.0 | 1.0 | 0.00 | 0.00 | 0.00 | 51 | 1022.4 |
| 20260902155142 | 97 | 169 | 1.0 | 3.0 | 0.00 | 0.00 | 0.00 | 52 | 1022.5 |
| 20260902154637 | 96 | 240 | 3.0 | 5.0 | 0.00 | 0.00 | 0.00 | 53 | 1022.5 |
| 20260902154132 | 95 | 130 | 0.0 | 1.0 | 0.00 | 0.00 | 0.00 | 53 | 1022.6 |
| 20260902153631 | 96 | 226 | 3.0 | 3.0 | 0.00 | 0.00 | 0.00 | 54 | 1022.5 |
| 20260902153126 | 96 | 202 | 3.0 | 3.0 | 0.00 | 0.00 | 0.00 | 53 | 1022.6 |
| 20260902152623 | 95 | 166 | 1.0 | 2.0 | 0.00 | 0.00 | 0.00 | 54 | 1022.5 |
| 20260902152118 | 96 | 6 | 2.0 | 6.0 | 0.00 | 0.00 | 0.00 | 55 | 1022.5 |
| 20260902151614 | 95 | 146 | 0.0 | 3.0 | 0.00 | 0.00 | 0.00 | 55 | 1022.4 |
| 20260902151113 | 95 | 251 | 4.0 | 5.0 | 0.00 | 0.00 | 0.00 | 57 | 1022.6 |
| 20260902150608 | 93 | 169 | 2.0 | 5.0 | 0.00 | 0.00 | 0.00 | 57 | 1022.5 |
| 20260902150103 | 94 | 123 | 4.0 | 6.0 | 0.00 | 0.00 | 0.00 | 56 | 1022.7 |
| 20260902145558 | 93 | 297 | 4.0 | 5.0 | 0.00 | 0.00 | 0.00 | 56 | 1022.7 |
| 20260902145057 | 93 | 340 | 2.0 | 3.0 | 0.00 | 0.00 | 0.00 | 57 | 1022.7 |
| 20260902144554 | 93 | 199 | 1.0 | 2.0 | 0.00 | 0.00 | 0.00 | 57 | 1022.6 |
| 20260902144049 | 93 | 135 | 1.0 | 5.0 | 0.00 | 0.00 | 0.00 | 64 | 1022.6 |
| 20260902143544 | 91 | 118 | 0.0 | 2.0 | 0.00 | 0.00 | 0.00 | 62 | 1022.7 |
| 20260902143040 | 91 | 127 | 1.0 | 2.0 | 0.00 | 0.00 | 0.00 | 66 | 1022.6 |
| 20260902142535 | 91 | 164 | 2.0 | 2.0 | 0.00 | 0.00 | 0.00 | 65 | 1022.8 |
| 20260902142031 | 91 | 290 | 1.0 | 2.0 | 0.00 | 0.00 | 0.00 | 67 | 1022.7 |
| 20260902141530 | 90 | 145 | 0.0 | 1.0 | 0.00 | 0.00 | 0.00 | 68 | 1022.7 |
| 20260902141025 | 89 | 126 | 1.0 | 3.0 | 0.00 | 0.00 | 0.00 | 71 | 1022.7 |
| 20260902140520 | 87 | 122 | 0.0 | 1.0 | 0.00 | 0.00 | 0.00 | 72 | 1022.9 |
| 20260902140016 | 87 | 145 | 1.0 | 2.0 | 0.00 | 0.00 | 0.00 | 74 | 1022.6 |
| 20260902135515 | 87 | 124 | 1.0 | 2.0 | 0.00 | 0.00 | 0.00 | 73 | 1022.9 |
| 20260902135010 | 87 | 137 | 1.0 | 1.0 | 0.00 | 0.00 | 0.00 | 74 | 1022.9 |
| 20260902134505 | 86 | 131 | 0.0 | 1.0 | 0.00 | 0.00 | 0.00 | 77 | 1022.7 |
| 20260902134000 | 84 | 124 | 1.0 | 1.0 | 0.00 | 0.00 | 0.00 | 79 | 1022.9 |
| 20260902133455 | 83 | 123 | 1.0 | 2.0 | 0.00 | 0.00 | 0.00 | 81 | 1022.8 |
| 20260902132949 | 82 | 123 | 1.0 | 2.0 | 0.00 | 0.00 | 0.00 | 82 | 1022.8 |
| 20260902132445 | 81 | 133 | 0.0 | 0.0 | 0.00 | 0.00 | 0.00 | 88 | 1022.5 |
| 20260902131939 | 79 | 125 | 0.0 | 0.0 | 0.00 | 0.00 | 0.00 | 98 | 1022.8 |
| 20260902131436 | 76 | 139 | 0.0 | 1.0 | 0.00 | 0.00 | 0.00 | 99 | 1022.7 |
| 20260902130936 | 76 | 148 | 1.0 | 2.0 | 0.00 | 0.00 | 0.00 | 99 | 1022.9 |
| 20260902130431 | 75 | 129 | 0.0 | 0.0 | 0.00 | 0.00 | 0.00 | 99 | 1022.8 |
| 20260902125926 | 75 | 134 | 1.0 | 1.0 | 0.00 | 0.00 | 0.00 | 99 | 1023.1 |
| 20260902125422 | 75 | 117 | 0.0 | 0.0 | 0.00 | 0.00 | 0.00 | 99 | 1022.9 |
| 20260902124918 | 74 | 117 | 0.0 | 0.0 | 0.00 | 0.00 | 0.00 | 99 | 1022.8 |
| 20260902124413 | 74 | 117 | 0.0 | 0.0 | 0.00 | 0.00 | 0.00 | 99 | 1022.7 |
| 20260902123908 | 73 | 117 | 0.0 | 0.0 | 0.00 | 0.00 | 0.00 | 99 | 1022.8 |
| 20260902123405 | 73 | 117 | 0.0 | 0.0 | 0.00 | 0.00 | 0.00 | 99 | 1022.9 |
| 20260902122903 | 72 | 118 | 0.0 | 0.0 | 0.00 | 0.00 | 0.00 | 99 | 1022.7 |
| 20260902122359 | 72 | 117 | 0.0 | 0.0 | 0.00 | 0.00 | 0.00 | 99 | 1022.7 |
| 20260902121854 | 72 | 118 | 0.0 | 0.0 | 0.00 | 0.00 | 0.00 | 99 | 1022.6 |
| 20260902121349 | 71 | 117 | 0.0 | 0.0 | 0.00 | 0.00 | 0.00 | 99 | 1022.6 |
| 20260902120844 | 71 | 117 | 0.0 | 0.0 | 0.00 | 0.00 | 0.00 | 99 | 1022.4 |
| 20260902120341 | 71 | 117 | 0.0 | 0.0 | 0.00 | 0.00 | 0.00 | 99 | 1022.5 |
| 20260902115840 | 71 | 117 | 0.0 | 0.0 | 0.00 | 0.00 | 0.00 | 99 | 1022.3 |
| 20260902115337 | 71 | 118 | 0.0 | 0.0 | 0.00 | 0.00 | 0.00 | 99 | 1022.4 |
| 20260902114833 | 70 | 118 | 0.0 | 0.0 | 0.00 | 0.00 | 0.00 | 99 | 1022.4 |
| 20260902114328 | 70 | 118 | 0.0 | 0.0 | 0.00 | 0.00 | 0.00 | 99 | 1022.2 |
| 20260902113823 | 70 | 118 | 0.0 | 0.0 | 0.00 | 0.00 | 0.00 | 99 | 1022.3 |
| 20260902113318 | 70 | 118 | 0.0 | 0.0 | 0.00 | 0.00 | 0.00 | 99 | 1022.2 |
| 20260902112818 | 70 | 118 | 0.0 | 0.0 | 0.00 | 0.00 | 0.00 | 99 | 1022.2 |
| 20260902112314 | 70 | 118 | 0.0 | 0.0 | 0.00 | 0.00 | 0.00 | 99 | 1022.1 |
| 20260902111809 | 70 | 118 | 0.0 | 0.0 | 0.00 | 0.00 | 0.00 | 99 | 1022.0 |
| 20260902111306 | 70 | 118 | 0.0 | 0.0 | 0.00 | 0.00 | 0.00 | 99 | 1022.1 |
| 20260902110801 | 70 | 118 | 0.0 | 0.0 | 0.00 | 0.00 | 0.00 | 99 | 1022.1 |
| 20260902110257 | 70 | 118 | 0.0 | 0.0 | 0.00 | 0.00 | 0.00 | 99 | 1022.0 |
| 20260902105757 | 70 | 118 | 0.0 | 0.0 | 0.00 | 0.00 | 0.00 | 99 | 1021.9 |
| 20260902105252 | 70 | 118 | 0.0 | 0.0 | 0.00 | 0.00 | 0.00 | 99 | 1021.9 |
| 20260902104747 | 70 | 118 | 0.0 | 0.0 | 0.00 | 0.00 | 0.00 | 99 | 1021.9 |
| 20260902104244 | 70 | 118 | 0.0 | 0.0 | 0.00 | 0.00 | 0.00 | 99 | 1022.0 |
| 20260902103743 | 70 | 118 | 0.0 | 0.0 | 0.00 | 0.00 | 0.00 | 99 | 1021.8 |
| 20260902103237 | 70 | 118 | 0.0 | 0.0 | 0.00 | 0.00 | 0.00 | 99 | 1021.8 |
| 20260902102733 | 70 | 118 | 0.0 | 0.0 | 0.00 | 0.00 | 0.00 | 99 | 1021.8 |
| 20260902102231 | 70 | 118 | 0.0 | 0.0 | 0.00 | 0.00 | 0.00 | 99 | 1021.8 |
| 20260902101725 | 70 | 118 | 0.0 | 0.0 | 0.00 | 0.00 | 0.00 | 99 | 1021.8 |
| 20260902101220 | 71 | 118 | 0.0 | 0.0 | 0.00 | 0.00 | 0.00 | 99 | 1021.8 |
| 20260902100719 | 70 | 118 | 0.0 | 0.0 | 0.00 | 0.00 | 0.00 | 99 | 1021.6 |
| 20260902100214 | 71 | 118 | 0.0 | 0.0 | 0.00 | 0.00 | 0.00 | 99 | 1021.9 |
| 20260902095714 | 70 | 118 | 0.0 | 0.0 | 0.00 | 0.00 | 0.00 | 99 | 1021.7 |
| 20260902095208 | 70 | 118 | 0.0 | 0.0 | 0.00 | 0.00 | 0.00 | 99 | 1021.5 |
| 20260902094703 | 71 | 118 | 0.0 | 0.0 | 0.00 | 0.00 | 0.00 | 99 | 1021.5 |
| 20260902094159 | 71 | 118 | 0.0 | 0.0 | 0.00 | 0.00 | 0.00 | 99 | 1021.5 |
| 20260902093658 | 71 | 118 | 0.0 | 0.0 | 0.00 | 0.00 | 0.00 | 99 | 1021.5 |
| 20260902093153 | 71 | 118 | 0.0 | 0.0 | 0.00 | 0.00 | 0.00 | 99 | 1021.5 |
| 20260902092648 | 71 | 118 | 0.0 | 0.0 | 0.00 | 0.00 | 0.00 | 99 | 1021.2 |
| 20260902092143 | 71 | 118 | 0.0 | 0.0 | 0.00 | 0.00 | 0.00 | 99 | 1021.3 |
| 20260902091638 | 71 | 118 | 0.0 | 0.0 | 0.00 | 0.00 | 0.00 | 99 | 1021.3 |
| 20260902091134 | 71 | 118 | 0.0 | 0.0 | 0.00 | 0.00 | 0.00 | 99 | 1021.2 |
| 20260902090630 | 71 | 118 | 0.0 | 0.0 | 0.00 | 0.00 | 0.00 | 99 | 1021.2 |
| 20260902090129 | 71 | 118 | 0.0 | 0.0 | 0.00 | 0.00 | 0.00 | 99 | 1021.1 |
| 20260902085624 | 71 | 118 | 0.0 | 0.0 | 0.00 | 0.00 | 0.00 | 99 | 1021.0 |
| 20260902085119 | 71 | 118 | 0.0 | 0.0 | 0.00 | 0.00 | 0.00 | 99 | 1021.1 |
| 20260902084615 | 71 | 118 | 0.0 | 0.0 | 0.00 | 0.00 | 0.00 | 99 | 1021.2 |
| 20260902084111 | 71 | 118 | 0.0 | 0.0 | 0.00 | 0.00 | 0.00 | 99 | 1021.1 |
| 20260902083606 | 71 | 118 | 0.0 | 0.0 | 0.00 | 0.00 | 0.00 | 99 | 1021.1 |
| 20260902083105 | 71 | 118 | 0.0 | 0.0 | 0.00 | 0.00 | 0.00 | 99 | 1021.2 |
| 20260902082601 | 71 | 118 | 0.0 | 0.0 | 0.00 | 0.00 | 0.00 | 99 | 1021.3 |
| 20260902082057 | 71 | 118 | 0.0 | 0.0 | 0.00 | 0.00 | 0.00 | 99 | 1021.2 |
| 20260902081554 | 71 | 118 | 0.0 | 0.0 | 0.00 | 0.00 | 0.00 | 99 | 1021.0 |
| 20260902081048 | 71 | 118 | 0.0 | 0.0 | 0.00 | 0.00 | 0.00 | 99 | 1020.7 |
| 20260902080543 | 71 | 118 | 0.0 | 0.0 | 0.00 | 0.00 | 0.00 | 99 | 1021.1 |
| 20260902080039 | 71 | 118 | 0.0 | 0.0 | 0.00 | 0.00 | 0.00 | 99 | 1021.1 |
| 20260902075539 | 71 | 118 | 0.0 | 0.0 | 0.00 | 0.00 | 0.00 | 99 | 1021.0 |
| 20260902075035 | 71 | 118 | 0.0 | 0.0 | 0.00 | 0.00 | 0.00 | 99 | 1020.9 |
| 20260902074530 | 71 | 118 | 0.0 | 0.0 | 0.00 | 0.00 | 0.00 | 99 | 1020.8 |
| 20260902074025 | 71 | 118 | 0.0 | 0.0 | 0.00 | 0.00 | 0.00 | 99 | 1020.9 |
| 20260902073521 | 71 | 118 | 0.0 | 0.0 | 0.00 | 0.00 | 0.00 | 99 | 1020.9 |
| 20260902073017 | 71 | 118 | 0.0 | 0.0 | 0.00 | 0.00 | 0.00 | 99 | 1020.9 |
| 20260902072512 | 71 | 118 | 0.0 | 0.0 | 0.00 | 0.00 | 0.00 | 99 | 1021.0 |
| 20260902072009 | 71 | 118 | 0.0 | 0.0 | 0.00 | 0.00 | 0.00 | 99 | 1020.8 |
| 20260902071509 | 71 | 118 | 0.0 | 0.0 | 0.00 | 0.00 | 0.00 | 99 | 1021.0 |
| 20260902071005 | 71 | 118 | 0.0 | 0.0 | 0.00 | 0.00 | 0.00 | 99 | 1020.9 |
| 20260902070500 | 72 | 118 | 0.0 | 0.0 | 0.00 | 0.00 | 0.00 | 99 | 1020.9 |
| 20260902065959 | 72 | 118 | 0.0 | 0.0 | 0.00 | 0.00 | 0.00 | 99 | 1020.8 |
| 20260902065454 | 72 | 118 | 0.0 | 0.0 | 0.00 | 0.00 | 0.00 | 99 | 1021.0 |
| 20260902064949 | 72 | 118 | 0.0 | 0.0 | 0.00 | 0.00 | 0.00 | 99 | 1020.9 |
| 20260902064445 | 72 | 118 | 0.0 | 0.0 | 0.00 | 0.00 | 0.00 | 99 | 1020.9 |
| 20260902063940 | 72 | 118 | 0.0 | 0.0 | 0.00 | 0.00 | 0.00 | 99 | 1020.9 |
| 20260902063439 | 72 | 118 | 0.0 | 0.0 | 0.00 | 0.00 | 0.00 | 99 | 1021.0 |
| 20260902062935 | 72 | 118 | 0.0 | 0.0 | 0.00 | 0.00 | 0.00 | 99 | 1021.0 |
| 20260902062434 | 72 | 118 | 0.0 | 0.0 | 0.00 | 0.00 | 0.00 | 99 | 1021.0 |
| 20260902061929 | 72 | 118 | 0.0 | 0.0 | 0.00 | 0.00 | 0.00 | 99 | 1021.0 |
| 20260902061424 | 72 | 118 | 0.0 | 0.0 | 0.00 | 0.00 | 0.00 | 99 | 1020.9 |
| 20260902060920 | 72 | 118 | 0.0 | 0.0 | 0.00 | 0.00 | 0.00 | 99 | 1021.1 |
| 20260902060416 | 72 | 118 | 0.0 | 0.0 | 0.00 | 0.00 | 0.00 | 99 | 1021.0 |
| 20260902055912 | 72 | 118 | 0.0 | 0.0 | 0.00 | 0.00 | 0.00 | 99 | 1020.9 |
| 20260902055408 | 72 | 118 | 0.0 | 0.0 | 0.00 | 0.00 | 0.00 | 99 | 1021.0 |
| 20260902054903 | 72 | 118 | 0.0 | 0.0 | 0.00 | 0.00 | 0.00 | 99 | 1021.0 |
| 20260902054358 | 72 | 118 | 0.0 | 0.0 | 0.00 | 0.00 | 0.00 | 99 | 1021.1 |
| 20260902053854 | 72 | 118 | 0.0 | 0.0 | 0.00 | 0.00 | 0.00 | 99 | 1021.1 |
| 20260902053348 | 72 | 118 | 0.0 | 0.0 | 0.00 | 0.00 | 0.00 | 99 | 1021.1 |
| 20260902052847 | 73 | 118 | 0.0 | 0.0 | 0.00 | 0.00 | 0.00 | 99 | 1021.0 |
| 20260902052343 | 73 | 118 | 0.0 | 0.0 | 0.00 | 0.00 | 0.00 | 99 | 1021.0 |
| 20260902051838 | 73 | 118 | 0.0 | 0.0 | 0.00 | 0.00 | 0.00 | 99 | 1021.1 |
| 20260902051337 | 73 | 118 | 0.0 | 0.0 | 0.00 | 0.00 | 0.00 | 99 | 1021.0 |
| 20260902050831 | 73 | 118 | 0.0 | 0.0 | 0.00 | 0.00 | 0.00 | 99 | 1021.1 |
| 20260902050326 | 73 | 118 | 0.0 | 0.0 | 0.00 | 0.00 | 0.00 | 99 | 1020.8 |
| 20260902045821 | 73 | 118 | 0.0 | 0.0 | 0.00 | 0.00 | 0.00 | 99 | 1020.8 |
| 20260902045316 | 73 | 117 | 0.0 | 0.0 | 0.00 | 0.00 | 0.00 | 99 | 1021.0 |
| 20260902044813 | 73 | 118 | 0.0 | 0.0 | 0.00 | 0.00 | 0.00 | 99 | 1020.9 |
| 20260902044308 | 73 | 118 | 0.0 | 0.0 | 0.00 | 0.00 | 0.00 | 99 | 1021.1 |
| 20260902043802 | 73 | 118 | 0.0 | 0.0 | 0.00 | 0.00 | 0.00 | 99 | 1020.9 |
| 20260902043258 | 73 | 118 | 0.0 | 0.0 | 0.00 | 0.00 | 0.00 | 99 | 1021.0 |
| 20260902042757 | 73 | 118 | 0.0 | 0.0 | 0.00 | 0.00 | 0.00 | 99 | 1021.0 |
| 20260902042252 | 73 | 118 | 0.0 | 0.0 | 0.00 | 0.00 | 0.00 | 99 | 1021.1 |
| 20260902041747 | 73 | 117 | 0.0 | 0.0 | 0.00 | 0.00 | 0.00 | 99 | 1021.1 |
| 20260902041247 | 73 | 118 | 0.0 | 0.0 | 0.00 | 0.00 | 0.00 | 99 | 1021.0 |
| 20260902040746 | 73 | 118 | 0.0 | 0.0 | 0.00 | 0.00 | 0.00 | 99 | 1020.8 |
| 20260902040242 | 73 | 118 | 0.0 | 0.0 | 0.00 | 0.00 | 0.00 | 99 | 1020.9 |
| 20260902035740 | 73 | 118 | 0.0 | 0.0 | 0.00 | 0.00 | 0.00 | 98 | 1020.7 |
| 20260902035236 | 73 | 117 | 0.0 | 0.0 | 0.00 | 0.00 | 0.00 | 98 | 1020.8 |
| 20260902034734 | 74 | 117 | 0.0 | 0.0 | 0.00 | 0.00 | 0.00 | 98 | 1020.7 |
| 20260902034230 | 74 | 117 | 0.0 | 0.0 | 0.00 | 0.00 | 0.00 | 98 | 1020.7 |
| 20260902033728 | 74 | 118 | 0.0 | 0.0 | 0.00 | 0.00 | 0.00 | 98 | 1020.8 |
| 20260902033223 | 74 | 118 | 0.0 | 0.0 | 0.00 | 0.00 | 0.00 | 98 | 1021.0 |
| 20260902032722 | 74 | 118 | 0.0 | 0.0 | 0.00 | 0.00 | 0.00 | 98 | 1020.8 |
| 20260902032217 | 74 | 118 | 0.0 | 0.0 | 0.00 | 0.00 | 0.00 | 97 | 1021.1 |
| 20260902031717 | 74 | 118 | 0.0 | 0.0 | 0.00 | 0.00 | 0.00 | 97 | 1021.0 |
| 20260902031212 | 74 | 118 | 0.0 | 0.0 | 0.00 | 0.00 | 0.00 | 97 | 1021.2 |
| 20260902030709 | 75 | 118 | 0.0 | 0.0 | 0.00 | 0.00 | 0.00 | 97 | 1021.0 |
| 20260902030208 | 75 | 118 | 0.0 | 0.0 | 0.00 | 0.00 | 0.00 | 97 | 1021.1 |
| 20260902025707 | 75 | 118 | 0.0 | 0.0 | 0.00 | 0.00 | 0.00 | 96 | 1020.9 |
| 20260902025203 | 75 | 117 | 0.0 | 0.0 | 0.00 | 0.00 | 0.00 | 96 | 1021.0 |
| 20260902024658 | 75 | 117 | 0.0 | 0.0 | 0.00 | 0.00 | 0.00 | 96 | 1021.0 |
| 20260902024153 | 75 | 118 | 0.0 | 0.0 | 0.00 | 0.00 | 0.00 | 95 | 1021.0 |
| 20260902023648 | 75 | 117 | 0.0 | 0.0 | 0.00 | 0.00 | 0.00 | 95 | 1021.1 |
| 20260902023143 | 75 | 122 | 0.0 | 0.0 | 0.00 | 0.00 | 0.00 | 95 | 1021.0 |
| 20260902022643 | 75 | 122 | 0.0 | 0.0 | 0.00 | 0.00 | 0.00 | 95 | 1020.9 |
| 20260902022139 | 75 | 122 | 0.0 | 0.0 | 0.00 | 0.00 | 0.00 | 95 | 1020.9 |
| 20260902021634 | 76 | 122 | 0.0 | 0.0 | 0.00 | 0.00 | 0.00 | 94 | 1020.8 |
| 20260902021129 | 76 | 121 | 0.0 | 0.0 | 0.00 | 0.00 | 0.00 | 94 | 1021.0 |
| 20260902020625 | 76 | 122 | 0.0 | 0.0 | 0.00 | 0.00 | 0.00 | 93 | 1020.8 |
| 20260902020120 | 76 | 121 | 0.0 | 0.0 | 0.00 | 0.00 | 0.00 | 93 | 1020.9 |
| 20260902015616 | 76 | 121 | 0.0 | 0.0 | 0.00 | 0.00 | 0.00 | 93 | 1021.0 |
| 20260902015112 | 77 | 121 | 0.0 | 0.0 | 0.00 | 0.00 | 0.00 | 92 | 1020.8 |
| 20260902014608 | 77 | 121 | 0.0 | 0.0 | 0.00 | 0.00 | 0.00 | 92 | 1020.7 |
| 20260902014103 | 77 | 121 | 0.0 | 0.0 | 0.00 | 0.00 | 0.00 | 91 | 1020.9 |
| 20260902013602 | 77 | 122 | 0.0 | 0.0 | 0.00 | 0.00 | 0.00 | 91 | 1020.7 |
| 20260902013058 | 78 | 122 | 0.0 | 0.0 | 0.00 | 0.00 | 0.00 | 90 | 1020.8 |
| 20260902012553 | 78 | 122 | 0.0 | 0.0 | 0.00 | 0.00 | 0.00 | 90 | 1020.7 |
| 20260902012048 | 78 | 122 | 0.0 | 0.0 | 0.00 | 0.00 | 0.00 | 89 | 1020.6 |
| 20260902011544 | 78 | 122 | 0.0 | 0.0 | 0.00 | 0.00 | 0.00 | 89 | 1020.6 |
| 20260902011043 | 79 | 122 | 0.0 | 0.0 | 0.00 | 0.00 | 0.00 | 88 | 1020.4 |
| 20260902010543 | 79 | 122 | 0.0 | 0.0 | 0.00 | 0.00 | 0.00 | 87 | 1020.5 |
| 20260902010039 | 79 | 122 | 0.0 | 0.0 | 0.00 | 0.00 | 0.00 | 86 | 1020.4 |
| 20260902005536 | 80 | 122 | 0.0 | 0.0 | 0.00 | 0.00 | 0.00 | 85 | 1020.5 |
| 20260902005033 | 80 | 122 | 0.0 | 0.0 | 0.00 | 0.00 | 0.00 | 84 | 1020.4 |
| 20260902004532 | 81 | 122 | 0.0 | 0.0 | 0.00 | 0.00 | 0.00 | 83 | 1020.1 |
| 20260902004028 | 81 | 122 | 0.0 | 0.0 | 0.00 | 0.00 | 0.00 | 82 | 1020.2 |
| 20260902003523 | 82 | 122 | 0.0 | 0.0 | 0.00 | 0.00 | 0.00 | 81 | 1020.3 |
| 20260902003018 | 83 | 122 | 0.0 | 0.0 | 0.00 | 0.00 | 0.00 | 80 | 1020.3 |
| 20260902002514 | 84 | 122 | 0.0 | 0.0 | 0.00 | 0.00 | 0.00 | 79 | 1020.1 |
| 20260902002009 | 85 | 122 | 0.0 | 0.0 | 0.00 | 0.00 | 0.00 | 77 | 1020.3 |
| 20260902001503 | 86 | 122 | 0.0 | 0.0 | 0.00 | 0.00 | 0.00 | 75 | 1020.4 |
| 20260902000958 | 87 | 122 | 0.0 | 0.0 | 0.00 | 0.00 | 0.00 | 73 | 1020.2 |
| 20260902000453 | 88 | 122 | 0.0 | 0.0 | 0.00 | 0.00 | 0.00 | 70 | 1020.3 |
| 20260901235948 | 89 | 122 | 0.0 | 0.0 | 0.00 | 0.00 | 0.00 | 66 | 1020.3 |
| 20260901235443 | 91 | 123 | 0.0 | 0.0 | 0.00 | 0.00 | 0.00 | 62 | 1020.3 |
| 20260901234938 | 92 | 123 | 0.0 | 0.0 | 0.00 | 0.00 | 0.00 | 59 | 1020.2 |
| 20260901234432 | 93 | 123 | 0.0 | 0.0 | 0.00 | 0.00 | 0.00 | 57 | 1020.2 |
| 20260901233927 | 94 | 156 | 1.0 | 1.0 | 0.00 | 0.00 | 0.00 | 54 | 1020.5 |
| 20260901233422 | 94 | 134 | 0.0 | 0.0 | 0.00 | 0.00 | 0.00 | 52 | 1020.4 |
| 20260901232919 | 95 | 143 | 1.0 | 1.0 | 0.00 | 0.00 | 0.00 | 52 | 1020.5 |
| 20260901232418 | 95 | 129 | 0.0 | 3.0 | 0.00 | 0.00 | 0.00 | 51 | 1020.5 |
| 20260901231914 | 95 | 138 | 1.0 | 2.0 | 0.00 | 0.00 | 0.00 | 51 | 1020.5 |
| 20260901231411 | 96 | 187 | 0.0 | 2.0 | 0.00 | 0.00 | 0.00 | 49 | 1020.6 |
| 20260901230907 | 97 | 137 | 0.0 | 1.0 | 0.00 | 0.00 | 0.00 | 48 | 1020.5 |
| 20260901230406 | 96 | 132 | 0.0 | 1.0 | 0.00 | 0.00 | 0.00 | 48 | 1020.5 |
| 20260901225901 | 96 | 169 | 1.0 | 2.0 | 0.00 | 0.00 | 0.00 | 47 | 1020.6 |
| 20260901225401 | 97 | 167 | 0.0 | 3.0 | 0.00 | 0.00 | 0.00 | 49 | 1020.6 |